OBJECT A, 61894

Orbit data source: Space-Track

You're viewing an Uncataloged Satellite

Recently launched and/or uncataloged satellites may have evolving metadata. Metadata may include but not limited to: Owner, Maufacturer, Bus, Motor, and Mission.

OBJECT A, 61894 is a satellite owned by CASC (CN) in SSO that was launched on Mon, 11 Nov 2024 UTC via a LIJIAN-1 launch vehicle from the Jiuquan Satellite Launch Center, China (JSC). Unknown objects in Earth's orbit typically refer to objects detected orbiting the Earth but have not yet been identified or cataloged. These objects could be anything from previously untracked satellites, spent rocket stages, debris from satellite collisions, or even natural meteoroids temporarily captured by Earth's gravity.

Loading next visibility...
Identifier
61894, 2024-205A
Orbit
SSO
Country
Flag of CNCN / PRC
Related business
None
Manufacturer
SECM?
Mission
Operational Defense Technology
Bus & Motor
Unknown
Mass
~100 kg wet, ~100 kg dry
Launch date (UTC)
2024-11-11 (10 months ago)
Launch vehicle
LIJIAN-1
Launch site
Jiuquan Satellite Launch Center, China (JSC)
Object type
Unknown
Shape & HBR
Box + 2 Pan, 2.5 m
Radar Cross Section
4.795 m², Medium (>0.1 m² and < 1m²)

Expand to show TLE details & history
Last TLE update: 10 hours ago

TLE from 10 hours ago
0 OBJECT A
1 61894U 24205A   25261.31820979  .00009395  00000-0  48669-3 0  9998
2 61894  97.4451 333.1204 0022668 254.4672 105.4058 15.16187411 47076
Epoch: 2025-09-18T07:38Z
TLE epoch observation values (Epoch: 2025-09-18T07:38:13.325Z)
Latitude
-0.00007°
Longitude
-138.91664°
Altitude
524.646 km
Speed
7.599 km/s
True Right ascension
22h 12m 28s
True Declination
0° 00' 00"
Sunlit
Object was in full shadow at epoch
Visualization orbit readout
Latitude
Unknown
Longitude
Unknown
Altitude
Unknown
Speed
Unknown
Apparent Right ascension
Unknown
Apparent Declination
Unknown
Sunlit
N/A
Visualization observer readout
Local Sidereal Time
10:26:48
Azimuth
Unknown
Elevation
Unknown
Doppler factor
Unknown
Orbital elements
Apogee altitude
529.972 km
Perigee altitude
498.725 km
Semi-major axis
6,892.486 km
Eccentricity
0.00227
Inclination
97.4451°
RAAN
333.1204°
Arg. of periapsis
254.4672°
True anomaly
105.65603°
Mean anomaly
105.4058°
Eccentric anomaly
105.53094°
Mean motion
3.79297 °/min
Orbital period
94.91 mins
BSTAR
0.00048669
Loading maneuver chart data...
Computing Atmospheric mass density...
Loading historical data...
Loading historical data...
Loading historical data...
Loading historical data...
Loading historical data...
Loading historical data...
Loading historical data...

Documentation

Showing up to 5 results
|